Tracking 35275 objects as of 9-Sep-2026
HD Live streaming from Space Station
objects crossing your sky now

STARLINK-34197

Track STARLINK-34197 now!
10-day predictions
STARLINK-34197 is classified as:


NORAD ID: 64184
Int'l Code: 2025-113Q
Launch date: May 28, 2025
Source: United States (US)
Launch site: AIR FORCE EASTERN TEST RANGE (AFETR)
Your satellite tracking list
Your tracking list is empty




NASA's NSSDC Master Catalog

Two Line Element Set (TLE):
1 64184U 25113Q   26251.48680271  .00027271  00000-0  81467-3 0  9995
2 64184  53.1588 321.9622 0001061  96.1196 263.9928 15.34425796 73050
Source of the keplerian elements: AFSPC